01:05
Airports
History
Links
Donate
Help keep this website running!
PayPal
Bitcoin
Information on this page is community maintained and may be outdated or inaccurate and is intended for reference only or PC simulator navigating.
Always use approved charts for navigating.
EDTO
Offenburg Baden
Offenburg Baden (EDTO)
Offenburg, Baden-Wurttemberg, Germany (77656)
(U)
Lat/Lng:48° 26' 52.15" N / 7° 55' 25.24" E
48.447819 / 7.923678
Elevation:509'ft 155mMSL
ID / ICAO:EDTO
Runways:1
Longest:(02-20) 917.3m 3,010ft Asphalt
Distance To
Airport ID:
Nearby VORs <50NM
Nearby NDBs
Nearby WeatherUpdated 05-23-17 01:00 GMT
Nearby weather at LFST, Entzheim located 14.9 nautical miles from EDTO
Altimeter: 30.03
Visibility: 6.2 statute miles
Wind: 2 knots (220°)
Temp: 14°c 57°f
Humidity: 82.1%

METAR: LFST 230100Z AUTO 22002KT 9999 NCD 14/11 Q1017 NOSIG

(Powered by phpweather)
Runway 02 / 20
Dimensions:917.3 x 20.1m 3010' x 66'ft
Surface:Asphalt
Runway 02 [A]Runway 20 [B]
Heading:020°TH 200°TH
Lat:
Lng:
48° 26' 38.29"N
7° 55' 17.64"E
48° 27' 6"N
7° 55' 32.84"E
User Notes and Comments
Google Map
Nearby Airports
(C) LAHR 7.0 NM
EDTL SW 219°
(C) Entzheim 14.9 NM
LFST (WX) WNW 294°
(C) Karlsruhe Baden Baden 24.0 NM
EDSB NNE 17°
(C) Haguenau 24.4 NM
LFSH NNW 348°
(U) Winzeln Schramberg 25.9 NM
EDTW ESE 116°
(C) FREIBURG 29.7 NM
EDTF S 188°
(C) Houssen 34.9 NM
LFGA SW 228°
VFR Chart
Flight Planning at SkyVector.com